Terug naar catalogus

STARLINK-3521

ActiefCommunicatieVLEO
NORAD 51742·PAYLOAD·🇺🇸 United States

Gelanceerd Feb 21, 2022 vanaf Cape Canaveral Space Force Station

Loading…

Volgende Passages (komende 24 uur)

TLE

VersSource: CelesTrak SupGP

Epoch: Sep 15, 2026, 02:43 UTC

1 51742C 22016AE  26258.11368056  .00013743  00000+0  40610-3 0  2582
2 51742  53.1570 174.6903 0001269  84.1155 195.4765 15.34378535    16

Volg STARLINK-3521 in realtime met AllMySat

Download on the App Store